CZ-6A DEB

Satellite information

Favourite Embed

Satellite Type and Status

DEBRISIN ORBIT

Key statistics

Satellite CZ-6A DEB at a glance.

Uptime

436

Days in orbit

Revolutions

≈ 14.3

Per day

Orbit

LEO

Low Earth Orbit

Inclination

89.0

Latest

Satellite identification and parameters

Extended collection of information and parameters for CZ-6A DEB.

Object identification

Identified? True

Debris? True

Object name: CZ-6A DEB

International designator: 2024-140TL

Object number (NORAD): 61299

Object ID (CCSDS): 61299

Country: PEOPLES REPUBLIC OF CHINA (PRC)

Current information (Y/N): Y

RCS size: SMALL

Orbital parameters

Period: 100.899 minutes

Inclination: 88.9885 deg

SMA: 7179.327 km

Apoapsis: 818.233 km

Periapsis: 784.151 km

RAAN: 301.316 deg

Eccentricy: 0.00237365

Argument of periapsis: 268.5116 deg

Mean anomaly: 91.3359 deg

Mean motion: 14.27174789 rev/day

Mean motion (dot): 0.00003759 rev/day2

B* drag term: 0.0015304648 1/REarth

Two-line elements (TLE)

Creation date: Oct. 16, 2025, 2:37 a.m.

Reference frame: TEME

Reference center: EARTH

Epoch: Oct. 15, 2025, 9:23 p.m. UTC

TLE line 0: 0 CZ-6A DEB

TLE line 1: 1 61299U 24140TL 25288.89126403 .00003759 00000-0 15305-2 0 9996

TLE line 2: 2 61299 88.9885 301.3160 0023736 268.5116 91.3359 14.27174789 58956

Live tracking on map

Real-time ground track for satellite CZ-6A DEB.

In-orbit conjunctions

A list of the most updated potential collisions computed for object CZ-6A DEB.

Target Orbit TCA Probability of collision Miss distance Type
COBE DEB SSO 2025-08-08 08:44:08 0.0002418365 454.0 (m) DEBRIS
SL-3 R/B LEO 2025-06-02 10:19:53 0.000162389 345.0 (m) ROCKET BODY
DELTA 1 DEB SSO 2025-02-16 07:53:16 0.0001323566 90.0 (m) DEBRIS
NOAA 16 DEB SSO 2025-01-28 03:43:52 0.001951871 81.0 (m) DEBRIS
FENGYUN 1C DEB SSO 2024-12-25 00:05:05 0.0002763258 546.0 (m) DEBRIS

Associated space launch

18 Low Earth Orbit communication satellites with Ku, Q and V band payloads for the G60 constellation operated by Shanghai Spacecom Satellite Technology (SSST) with funding backed by the Shanghai local government. Initial constellation will consist of 1296 satellites by 2027 with long term plans to expand it to 12000 satellites.

CZ-6A DEB was lifted into orbit during the mission ‘Long March 6A | G60 Polar Group 01’, on board a Long March 6A space rocket.

The launch took place on Aug. 6, 2024, 6:42 a.m. from Launch Complex 9A.

For more information about the launch, click the button.

Launch to space Long March 6A | G60 Polar Group 01
Long March 6A | G60 Polar Group 01

Agency: N/A

Status: Launch Successful

Launch date: Aug. 6, 2024, 6:42 a.m. UTC

Rocket: Long March 6A

Launch pad: Launch Complex 9A

Location: Taiyuan Satellite Launch Center, People's Republic of China

...

Latest news about this satellite

News about space launch
Brightness of first Chinese broadband constellation satellites alarms astronomers

The first satellites of a Chinese broadband constellation are significantly brighter than those of Western systems, posing a new challenge for astronomers.

News about space launch
Chinese rocket stage breaks up into cloud of more than 700 pieces of space debris

HELSINKI — A Chinese Long March 6A rocket’s upper stage has fragmented into a cloud of over 700 pieces of space debris, adding to concerns about long-term orbital safety. China […]

News about space launch
China's Thousand Sails Megaconstellation Kicks Off with Dangerous Debris Field

China's Thousand Sails Megaconstellation Kicks Off with Dangerous Debris Field


Newsletter sign-up

Weekly statistics, charts and insights to help you stay on top of the space industry.